Location: Corte Bragagnani
(45.3000°N, 11.1000°E)
Time: 08:42:33
(UTC+00:00)

STARLINK-1238 - Pass Details

Date: 09 April 2020
Orbit: 549 x 551 km, 53.0° (Epoch: 07 June)

Event Time Altitude Azimuth Distance (km) Brightness Sun altitude
Rises 18:15:41 0° 302° (WNW) 2,735 9.0 -4.5°
Reaches altitude 10° 18:17:58 10° 306° (NW) 1,838 7.7 -4.9°
Maximum altitude 18:22:05 58° 26° (NNE) 652 4.0 -5.6°
Drops below altitude 10° 18:26:12 10° 106° (ESE) 1,829 5.6 -6.2°
Enters shadow 18:26:37 - 107° (ESE) 1,996 5.8 -6.3°
